timestamp,wind_dir_avg,wind_spd_avg,wind_spd_max_dir,wind_spd_gust,battery_voltage,lat,long
2022-10-08 00:04:00+00:00,43.0,7.49,44.0,8.43,12.57,47.59359,-54.27349
2022-10-08 00:14:00+00:00,57.0,8.67,65.0,10.09,12.49,47.59359,-54.27349
2022-10-08 00:24:00+00:00,60.0,8.65,61.0,10.76,12.49,47.59359,-54.27349
2022-10-08 00:34:00+00:00,65.0,8.89,63.0,10.77,12.49,47.59359,-54.27349
2022-10-08 00:44:00+00:00,38.0,9.06,33.0,10.41,12.49,47.59359,-54.27349
2022-10-08 00:54:00+00:00,64.0,8.63,67.0,10.17,12.49,47.59359,-54.27349
2022-10-08 01:04:00+00:00,66.0,8.48,60.0,9.9,12.49,47.59359,-54.27349
2022-10-08 01:14:00+00:00,47.0,8.64,54.0,10.38,12.49,47.59359,-54.27349
2022-10-08 01:24:00+00:00,41.0,7.73,37.0,9.4,12.49,47.59359,-54.27349
2022-10-08 01:34:00+00:00,43.0,6.64,41.0,7.54,12.49,47.59359,-54.27349
2022-10-08 01:44:00+00:00,54.0,7.15,51.0,8.19,12.49,47.59359,-54.27349
2022-10-08 01:54:00+00:00,51.0,7.39,61.0,8.73,12.49,47.59359,-54.27349
2022-10-08 02:04:00+00:00,50.0,8.0,54.0,9.71,12.49,47.59359,-54.27349
2022-10-08 02:14:01+00:00,48.0,8.16,57.0,9.54,12.49,47.59359,-54.27349
2022-10-08 02:24:01+00:00,64.0,6.02,63.0,7.95,12.49,47.59359,-54.27349
2022-10-08 02:34:01+00:00,52.0,6.31,50.0,7.47,12.49,47.59359,-54.27349
2022-10-08 02:44:01+00:00,54.0,6.11,49.0,7.62,12.49,47.59359,-54.27349
2022-10-08 02:54:01+00:00,48.0,6.73,42.0,7.83,12.49,47.59359,-54.27349
2022-10-08 03:04:01+00:00,59.0,6.02,61.0,6.71,12.49,47.59359,-54.27349
2022-10-08 03:14:01+00:00,59.0,6.37,55.0,7.66,12.41,47.59359,-54.27349
2022-10-08 03:24:01+00:00,59.0,6.63,65.0,8.97,12.41,47.59359,-54.27349
2022-10-08 03:34:01+00:00,56.0,6.77,60.0,7.79,12.41,47.59359,-54.27349
2022-10-08 03:44:01+00:00,50.0,7.64,52.0,8.61,12.41,47.59359,-54.27349
2022-10-08 03:54:01+00:00,42.0,6.35,38.0,7.36,12.41,47.59359,-54.27349
2022-10-08 04:04:01+00:00,36.0,7.16,36.0,7.94,12.41,47.59359,-54.27349
2022-10-08 04:14:00+00:00,45.0,7.12,47.0,8.09,12.41,47.59359,-54.27349
2022-10-08 04:24:00+00:00,53.0,7.34,53.0,9.75,12.41,47.59359,-54.27349
2022-10-08 04:34:00+00:00,47.0,7.32,51.0,8.54,12.41,47.59359,-54.27349
2022-10-08 04:44:00+00:00,62.0,6.41,58.0,7.36,12.41,47.59359,-54.27349
2022-10-08 04:54:00+00:00,52.0,7.73,61.0,9.13,12.41,47.59359,-54.27349
2022-10-08 05:04:00+00:00,53.0,7.41,57.0,9.4,12.41,47.59359,-54.27349
2022-10-08 05:14:01+00:00,44.0,7.69,47.0,8.21,12.41,47.59359,-54.27349
2022-10-08 05:24:01+00:00,70.0,8.04,72.0,9.66,12.41,47.59359,-54.27349
2022-10-08 05:34:01+00:00,63.0,8.05,68.0,9.91,12.41,47.59359,-54.27349
2022-10-08 05:44:01+00:00,69.0,6.88,72.0,7.67,12.41,47.59359,-54.27349
2022-10-08 05:54:01+00:00,61.0,7.86,47.0,10.22,12.41,47.59359,-54.27349
2022-10-08 06:04:01+00:00,57.0,7.3,56.0,9.17,12.41,47.59359,-54.27349
2022-10-08 06:14:01+00:00,65.0,6.8,75.0,8.43,12.41,47.59359,-54.27349
2022-10-08 06:24:01+00:00,56.0,7.64,62.0,8.91,12.41,47.59359,-54.27349
2022-10-08 06:34:01+00:00,55.0,7.6,54.0,8.72,12.41,47.59359,-54.27349
2022-10-08 06:44:01+00:00,60.0,6.91,63.0,8.3,12.41,47.59359,-54.27349
2022-10-08 06:54:01+00:00,68.0,7.24,69.0,8.84,12.41,47.59359,-54.27349
2022-10-08 07:04:01+00:00,67.0,6.13,62.0,8.1,12.41,47.59359,-54.27349
2022-10-08 07:14:01+00:00,56.0,8.02,62.0,9.3,12.41,47.59359,-54.27349
2022-10-08 07:24:01+00:00,53.0,8.36,57.0,9.82,12.41,47.59359,-54.27349
2022-10-08 07:34:01+00:00,62.0,8.68,57.0,10.53,12.41,47.59359,-54.27349
2022-10-08 07:44:01+00:00,66.0,8.57,69.0,10.3,12.41,47.59359,-54.27349
2022-10-08 07:54:01+00:00,64.0,6.99,67.0,8.74,12.41,47.59359,-54.27349
2022-10-08 08:04:01+00:00,61.0,7.15,66.0,8.8,12.41,47.59359,-54.27349
2022-10-08 08:14:00+00:00,59.0,5.91,55.0,6.94,12.33,47.59359,-54.27349
2022-10-08 08:24:00+00:00,68.0,7.97,69.0,8.92,12.33,47.59359,-54.27349
2022-10-08 08:34:00+00:00,65.0,7.51,66.0,8.89,12.33,47.59359,-54.27349
2022-10-08 08:44:00+00:00,57.0,7.18,56.0,8.27,12.33,47.59359,-54.27349
2022-10-08 08:54:00+00:00,61.0,6.64,63.0,7.35,12.33,47.59359,-54.27349
2022-10-08 09:04:00+00:00,69.0,6.58,68.0,8.15,12.33,47.59359,-54.27349
2022-10-08 09:14:01+00:00,66.0,6.16,58.0,7.18,12.33,47.59359,-54.27349
2022-10-08 09:24:01+00:00,65.0,5.21,65.0,8.06,12.33,47.59359,-54.27349
2022-10-08 09:34:01+00:00,55.0,5.84,60.0,6.86,12.33,47.59359,-54.27349
2022-10-08 09:44:01+00:00,63.0,5.78,60.0,6.86,12.33,47.59359,-54.27349
2022-10-08 09:54:01+00:00,60.0,6.31,62.0,6.96,12.33,47.59359,-54.27349
2022-10-08 10:04:01+00:00,69.0,5.79,66.0,6.72,12.33,47.59359,-54.27349
2022-10-08 10:14:01+00:00,79.0,3.5,66.0,4.58,12.33,47.59359,-54.27349
2022-10-08 10:24:01+00:00,77.0,3.71,69.0,5.35,12.33,47.59359,-54.27349
2022-10-08 10:34:01+00:00,70.0,5.04,58.0,6.37,12.33,47.59359,-54.27349
2022-10-08 10:44:01+00:00,84.0,4.24,92.0,6.04,12.33,47.59359,-54.27349
2022-10-08 10:54:01+00:00,67.0,4.67,66.0,5.8,12.33,47.59359,-54.27349
2022-10-08 11:04:01+00:00,68.0,4.64,61.0,5.43,12.33,47.59359,-54.27349
2022-10-08 11:14:00+00:00,73.0,4.88,63.0,5.7,12.41,47.59359,-54.27349
2022-10-08 11:24:00+00:00,72.0,5.36,57.0,6.99,12.41,47.59359,-54.27349
2022-10-08 11:34:00+00:00,67.0,5.2,76.0,5.98,12.41,47.59359,-54.27349
2022-10-08 11:44:00+00:00,73.0,3.85,71.0,4.81,12.41,47.59359,-54.27349
2022-10-08 11:54:00+00:00,81.0,3.47,66.0,4.95,12.41,47.59359,-54.27349
2022-10-08 12:04:00+00:00,58.0,5.65,64.0,6.69,12.41,47.59359,-54.27349
2022-10-08 12:14:00+00:00,59.0,5.47,59.0,5.97,12.97,47.59359,-54.27349
2022-10-08 12:24:00+00:00,63.0,5.53,58.0,6.77,12.97,47.59359,-54.27349
2022-10-08 12:34:00+00:00,84.0,3.61,73.0,4.62,12.97,47.59359,-54.27349
2022-10-08 12:44:00+00:00,56.0,5.12,47.0,5.69,12.97,47.59359,-54.27349
2022-10-08 12:54:00+00:00,64.0,5.58,59.0,6.47,12.97,47.59359,-54.27349
2022-10-08 13:04:00+00:00,75.0,3.63,60.0,4.81,12.97,47.59359,-54.27349
2022-10-08 13:14:00+00:00,61.0,4.12,60.0,5.19,13.37,47.59359,-54.27349
2022-10-08 13:24:00+00:00,59.0,5.2,56.0,5.77,13.37,47.59359,-54.27349
2022-10-08 13:34:00+00:00,67.0,4.57,59.0,5.69,13.37,47.59359,-54.27349
2022-10-08 13:44:00+00:00,68.0,4.73,64.0,5.79,13.37,47.59359,-54.27349
2022-10-08 13:54:00+00:00,66.0,4.38,65.0,4.75,13.37,47.59359,-54.27349
2022-10-08 14:04:00+00:00,63.0,4.74,54.0,5.25,13.37,47.59359,-54.27349
2022-10-08 14:14:00+00:00,64.0,5.02,61.0,5.52,13.53,47.59359,-54.27349
2022-10-08 14:24:00+00:00,61.0,4.82,63.0,5.37,13.53,47.59359,-54.27349
2022-10-08 14:34:00+00:00,70.0,4.89,71.0,5.44,13.53,47.59359,-54.27349
2022-10-08 14:44:00+00:00,66.0,4.74,66.0,5.57,13.53,47.59359,-54.27349
2022-10-08 14:54:00+00:00,70.0,4.61,69.0,5.22,13.53,47.59359,-54.27349
2022-10-08 15:04:00+00:00,69.0,4.98,70.0,5.47,13.53,47.59359,-54.27349
2022-10-08 15:14:01+00:00,65.0,4.12,57.0,5.45,13.84,47.59359,-54.27349
2022-10-08 15:24:01+00:00,66.0,4.52,65.0,5.03,13.84,47.59359,-54.27349
2022-10-08 15:34:01+00:00,73.0,3.88,72.0,4.42,13.84,47.59359,-54.27349
2022-10-08 15:44:01+00:00,64.0,5.16,68.0,5.79,13.84,47.59359,-54.27349
2022-10-08 15:54:01+00:00,69.0,4.09,59.0,4.7,13.84,47.59359,-54.27349
2022-10-08 16:04:01+00:00,59.0,3.92,58.0,4.34,13.84,47.59359,-54.27349
2022-10-08 16:14:01+00:00,73.0,3.06,56.0,4.56,13.76,47.59359,-54.27349
2022-10-08 16:24:01+00:00,66.0,2.83,58.0,3.41,13.76,47.59359,-54.27349
2022-10-08 16:34:01+00:00,110.0,2.19,122.0,2.93,13.76,47.59359,-54.27349
2022-10-08 16:44:01+00:00,102.0,2.03,123.0,3.06,13.76,47.59359,-54.27349
2022-10-08 16:54:01+00:00,70.0,1.99,67.0,2.52,13.76,47.59359,-54.27349
2022-10-08 17:04:01+00:00,74.0,2.25,66.0,2.88,13.76,47.59359,-54.27349
2022-10-08 17:14:00+00:00,81.0,1.84,104.0,3.13,13.68,47.59359,-54.27349
2022-10-08 17:24:00+00:00,124.0,3.47,127.0,4.43,13.68,47.59359,-54.27349
2022-10-08 17:34:00+00:00,100.0,2.32,66.0,3.89,13.68,47.59359,-54.27349
2022-10-08 17:44:00+00:00,90.0,2.39,124.0,4.18,13.68,47.59359,-54.27349
2022-10-08 17:54:00+00:00,84.0,1.73,110.0,2.69,13.68,47.59359,-54.27349
2022-10-08 18:04:00+00:00,122.0,3.27,118.0,3.8,13.68,47.59359,-54.27349
2022-10-08 18:14:01+00:00,88.0,2.01,84.0,2.71,13.6,47.59359,-54.27349
2022-10-08 18:24:01+00:00,72.0,1.86,100.0,2.49,13.6,47.59359,-54.27349
2022-10-08 18:34:01+00:00,68.0,1.7,62.0,2.4,13.6,47.59359,-54.27349
2022-10-08 18:44:01+00:00,92.0,1.7,99.0,2.29,13.6,47.59359,-54.27349
2022-10-08 18:54:01+00:00,116.0,2.8,126.0,3.42,13.6,47.59359,-54.27349
2022-10-08 19:04:01+00:00,120.0,2.58,117.0,3.31,13.6,47.59359,-54.27349
2022-10-08 19:14:01+00:00,87.0,2.23,108.0,3.41,13.29,47.59359,-54.27349
2022-10-08 19:24:01+00:00,120.0,2.39,121.0,2.67,13.29,47.59359,-54.27349
2022-10-08 19:34:01+00:00,119.0,2.61,122.0,3.22,13.29,47.59359,-54.27349
2022-10-08 19:44:01+00:00,133.0,2.76,135.0,3.1,13.29,47.59359,-54.27349
2022-10-08 19:54:01+00:00,145.0,3.03,149.0,3.7,13.29,47.59359,-54.27349
2022-10-08 20:04:01+00:00,154.0,3.77,155.0,4.21,13.29,47.59359,-54.27349
2022-10-08 20:14:01+00:00,173.0,3.54,173.0,3.83,13.21,47.59359,-54.27349
2022-10-08 20:24:01+00:00,167.0,3.06,165.0,3.37,13.21,47.59359,-54.27349
2022-10-08 20:34:01+00:00,158.0,2.44,158.0,2.78,13.21,47.59359,-54.27349
2022-10-08 20:44:01+00:00,168.0,2.75,165.0,3.09,13.21,47.59359,-54.27349
2022-10-08 20:54:01+00:00,175.0,2.84,180.0,3.03,13.21,47.59359,-54.27349
2022-10-08 21:04:01+00:00,185.0,2.57,185.0,3.0,13.21,47.59359,-54.27349
2022-10-08 21:14:01+00:00,192.0,3.13,201.0,3.49,12.65,47.59359,-54.27349
2022-10-08 21:24:01+00:00,200.0,3.66,212.0,4.07,12.65,47.59359,-54.27349
2022-10-08 21:34:01+00:00,216.0,4.76,212.0,5.66,12.65,47.59359,-54.27349
2022-10-08 21:44:01+00:00,219.0,5.64,230.0,6.41,12.65,47.59359,-54.27349
2022-10-08 21:54:01+00:00,224.0,5.02,225.0,5.99,12.65,47.59359,-54.27349
2022-10-08 22:04:01+00:00,216.0,8.23,223.0,9.78,12.65,47.59359,-54.27349
2022-10-08 22:14:00+00:00,217.0,8.98,226.0,11.07,12.57,47.59359,-54.27349
2022-10-08 22:24:00+00:00,216.0,7.82,226.0,10.43,12.57,47.59359,-54.27349
2022-10-08 22:34:00+00:00,217.0,8.49,228.0,10.18,12.57,47.59359,-54.27349
2022-10-08 22:44:00+00:00,210.0,6.66,210.0,7.46,12.57,47.59359,-54.27349
2022-10-08 22:54:00+00:00,206.0,6.96,207.0,7.64,12.57,47.59359,-54.27349
2022-10-08 23:04:00+00:00,197.0,5.59,197.0,6.13,12.57,47.59359,-54.27349
2022-10-08 23:14:00+00:00,194.0,5.39,194.0,5.95,12.57,47.59359,-54.27349
2022-10-08 23:24:00+00:00,200.0,5.74,202.0,6.49,12.57,47.59359,-54.27349
2022-10-08 23:34:00+00:00,205.0,6.31,205.0,7.21,12.57,47.59359,-54.27349
2022-10-08 23:44:00+00:00,206.0,7.0,204.0,7.74,12.57,47.59359,-54.27349
2022-10-08 23:54:00+00:00,199.0,7.16,202.0,8.0,12.57,47.59359,-54.27349
